Showing default

ORESAT0.5, 60525

Orbit data source: Space-Track

ORESAT0.5, 60525 is a payload satellite owned by Portland State (US) in SSO that was launched on Fri, 16 Aug 2024 UTC via an FALCON 9 launch vehicle from the Air Force Western Test Range (AFWTR). Payload-class satellites include a variety of spacecraft equipped with specific instruments for various scientific and technological missions. These include communications satellites like Starlink; space stations such as the ISS; scientific satellites like the Hubble; Earth observation satellites from companies like Planet Labs, Umbra, and HawkEye 360; GPS; miniature CubeSats for education and research; and military/defense satellites.

Loading next visibility...
Identifier
60525, 2024-149BK
Orbit
SSO
Country
Flag of USUS
Related business
Manufacturer
Portland State
Mission
Operational Amateur Technology
Bus & Motor
CUBESAT 1.5U, Unknown motor
Mass
2 kg wet, 2 kg dry
Launch date (UTC)
2024-08-16 (2 years ago)
Launch vehicle
FALCON 9
Launch site
Air Force Western Test Range (AFWTR)
Object type
Payload
Rocket body
Debris
Shape & HBR
Box + 1 Ant, 0.3 m
Radar Cross Section
0.040 m², Small (<0.1 m²)

Expand to show TLE details & history
Last TLE update: 6 hours ago

TLE from 6 hours ago
0 ORESAT0.5
1 60525U 24149BK  26129.75907701  .00014296  00000-0  31877-3 0  9995
2 60525  97.3713 215.2166 0006345  67.8478 292.3442 15.43666828 96540
Epoch: 2026-05-09T18:13Z
TLE epoch observation values (Epoch: 2026-05-09T18:13:04.253Z)
Latitude
-0.00013°
Longitude
74.37699°
Altitude
436.78 km
Speed
7.651 km/s
True Right ascension
14h 20m 51s
True Declination
0° 00' 00"
Sunlit
Object was in full shadow at epoch
Visualization orbit readout
Latitude
Unknown
Longitude
Unknown
Altitude
Unknown
Speed
Unknown
Apparent Right ascension
Unknown
Apparent Declination
Unknown
Sunlit
N/A
Visualization observer readout
Local Sidereal Time
08:44:30
Azimuth
Unknown
Elevation
Unknown
Doppler factor
Unknown
Orbital elements
Apogee altitude
436.552 km
Perigee altitude
427.91 km
Semi-major axis
6,810.368 km
Eccentricity
0.00063
Inclination
97.3713°
RAAN
215.2166°
Arg. of periapsis
67.8478°
True anomaly
292.27693°
Mean anomaly
292.3442°
Eccentric anomaly
292.31057°
Mean motion
3.86178 °/min
Orbital period
93.22 mins
BSTAR
0.00031877
Loading maneuver chart data...
Computing Atmospheric mass density...
Loading historical data...
Loading historical data...
Loading historical data...
Loading historical data...
Loading historical data...
Loading historical data...
Loading historical data...

Documentation

Showing up to 5 results
|